Zurück zum Katalog

STARLINK-6363

AktivKommunikationVLEO
NORAD 57375·PAYLOAD·🇺🇸 United States

Gestartet Jul 16, 2023 von Cape Canaveral Space Force Station

Loading…

Nächste Überflüge (nächste 24 Stunden)

TLE

AktuellSource: CelesTrak SupGP

Epoche: Sep 15, 2026, 02:24 UTC

1 57375C 23099AZ  26258.10048611 -.00131340  00000+0 -47545-2 0  2582
2 57375  43.0008 252.1826 0000974 280.9418 123.1154 15.27662353    10

Verfolge STARLINK-6363 in Echtzeit mit AllMySat

Download on the App Store